Victoria, British Columbia

7:17 AM PDT on August 16, 2017 (GMT -0700)
Victoria International

Weather History for CYYJ - May, 2014

Change the Weather History Date:

Saturday, May 31, 2014

  Actual Average Record
Temperature  
Mean Temperature 58 °F -  
Max Temperature 68 °F 67 °F 74 °F (2016)
Min Temperature 47 °F 49 °F 44 °F (2008)
Degree Days  
Heating Degree Days 8    
Growing Degree Days 8 (Base 50)    
Moisture  
Dew Point 49 °F    
Average Humidity 71    
Maximum Humidity 93    
Minimum Humidity 47    
Precipitation  
Precipitation 0.00 in 0.04 in - ()
Sea Level Pressure  
Sea Level Pressure 30.05 in    
Wind  
Wind Speed 5 mph ()    
Max Wind Speed 10 mph    
Max Gust Speed -    
Averages and records for this station are not official NWS values.
T = Trace of Precipitation, MM = Missing Value Source: Averaged Metar Reports

Daily Weather History Graph

Daily Weather History Graph

Search for Another Location

Airport or City:

Trip Planner

Search our weather history database for the weather conditions in past years. The results will help you decide how hot, cold, wet, or windy it might be!

Date:

Astronomy

May. 31, 2014 Rise Set
Actual Time 5:16 AM PDT 9:07 PM PDT
Civil Twilight 4:35 AM PDT 9:47 PM PDT
Nautical Twilight 3:40 AM PDT 10:43 PM PDT
Astronomical Twilight 2:15 AM PDT 12:10 AM PDT
Moon 8:05 AM PDT (5/31) 11:19 PM PDT (5/31)
Length of Visible Light 17h 12m
Length of Day
15h 50m
Waxing Crescent, 9% of the Moon is Illuminated
May 31
Waxing Crescent
Jun 5
First Quarter
Jun 12
Full
Jun 19
Last Quarter
Jun 27
New

Hourly Weather History & Observations

Time (PDT) Temp. Dew Point Humidity Pressure Visibility Wind Dir Wind Speed Gust Speed Precip Events Conditions
12:00 AM 51.8 °F 46.4 °F 82% 30.04 in 30.0 mi West 3.5 mph - N/A   Partly Cloudy
1:00 AM 50.0 °F 46.4 °F 87% 30.04 in 30.0 mi WSW 5.8 mph - N/A   Clear
2:00 AM 51.8 °F 48.2 °F 88% 30.04 in 30.0 mi WSW 5.8 mph - N/A   Clear
3:00 AM 50.0 °F 46.4 °F 87% 30.04 in 30.0 mi WSW 6.9 mph - N/A   Clear
4:00 AM 50.0 °F 46.4 °F 87% 30.05 in 30.0 mi WSW 6.9 mph - N/A   Partly Cloudy
5:00 AM 50 °F 46 °F 81% 30.06 in 28 mi WSW 6.9 mph - -   Clear
5:00 AM 50.0 °F 46.4 °F 87% 30.06 in 30.0 mi WSW 6.9 mph - N/A   Partly Cloudy
6:00 AM 48.2 °F 46.4 °F 93% 30.07 in 30.0 mi WSW 5.8 mph - N/A   Partly Cloudy
7:00 AM 51.8 °F 46.4 °F 82% 30.07 in 30.0 mi West 6.9 mph - N/A   Partly Cloudy
8:00 AM 55.4 °F 48.2 °F 77% 30.08 in 30.0 mi West 4.6 mph - N/A   Scattered Clouds
9:00 AM 60.8 °F 46.4 °F 59% 30.09 in 30.0 mi WNW 3.5 mph - N/A   Scattered Clouds
10:00 AM 62.6 °F 48.2 °F 59% 30.08 in 30.0 mi East 4.6 mph - N/A   Scattered Clouds
11:00 AM 64 °F 49 °F 48% 30.08 in 28 mi ENE 6.9 mph - -   Clear
11:00 AM 64.4 °F 50.0 °F 59% 30.08 in 30.0 mi NE 6.9 mph - N/A   Scattered Clouds
12:00 PM 64.4 °F 50.0 °F 59% 30.08 in 30.0 mi ENE 9.2 mph - N/A   Mostly Cloudy
1:00 PM 66.2 °F 50.0 °F 56% 30.07 in 30.0 mi East 6.9 mph - N/A   Mostly Cloudy
2:00 PM 68.0 °F 50.0 °F 52% 30.07 in 30.0 mi ESE 8.1 mph - N/A   Mostly Cloudy
3:00 PM 66.2 °F 51.8 °F 60% 30.06 in 30.0 mi SE 6.9 mph - N/A   Mostly Cloudy
4:00 PM 64.4 °F 48.2 °F 56% 30.04 in 30.0 mi SE 10.4 mph - N/A   Mostly Cloudy
5:00 PM 65 °F 49 °F 47% 30.04 in 28 mi ESE 8.1 mph - -   Scattered Clouds
5:00 PM 66.2 °F 50.0 °F 56% 30.04 in 30.0 mi ESE 8.1 mph - N/A   Mostly Cloudy
6:00 PM 62.6 °F 51.8 °F 68% 30.03 in 30.0 mi East 6.9 mph - N/A   Mostly Cloudy
7:00 PM 62.6 °F 51.8 °F 68% 30.02 in 30.0 mi ENE 3.5 mph - N/A   Mostly Cloudy
8:00 PM 60.8 °F 50.0 °F 68% 30.02 in 30.0 mi East 4.6 mph - N/A   Scattered Clouds
9:00 PM 60.8 °F 48.2 °F 63% 30.02 in 30.0 mi Calm Calm - N/A   Scattered Clouds
10:00 PM 53.6 °F 48.2 °F 82% 30.03 in 30.0 mi South 2.3 mph - N/A   Partly Cloudy
11:00 PM 54 °F 49 °F 78% 30.04 in 28 mi ENE 2.3 mph - -  
11:00 PM 53.6 °F 50.0 °F 88% 30.04 in 30.0 mi East 2.3 mph - N/A   Clear